This is the latest recevied weather packets stored in our database for station/object SQ7RAF-15. If no packets are shown the sender has not sent any weather packets the latest 10 day(s).
| Time | Temp. | Humidity | Pressure | Rain* | Wind** | Luminosity | Snow |
|---|---|---|---|---|---|---|---|
| 1778214936 | 7.78° C | 92% | 1016.8 hPa | 0 mm | - | 28 W/m² | - |
| 1778214648 | 7.78° C | 92% | 1016.7 hPa | 0 mm | - | 29 W/m² | - |
| 1778214328 | 7.78° C | 93% | 1016.7 hPa | 0 mm | - | 30 W/m² | - |
| 1778214040 | 7.78° C | 93% | 1016.7 hPa | 0 mm | - | 30 W/m² | - |
| 1778213720 | 7.78° C | 93% | 1016.6 hPa | 0 mm | - | 24 W/m² | - |
| 1778213432 | 7.78° C | 93% | 1016.6 hPa | 0 mm | - | 21 W/m² | - |
| 1778213144 | 7.78° C | 93% | 1016.4 hPa | 0 mm | - | 17 W/m² | - |
| 1778212824 | 7.78° C | 93% | 1016.5 hPa | 0 mm | - | 13 W/m² | - |
| 1778212536 | 7.78° C | 93% | 1016.3 hPa | 0 mm | - | 12 W/m² | - |
| 1778212248 | 7.78° C | 93% | 1016.4 hPa | 0 mm | - | 11 W/m² | - |
| 1778211928 | 7.78° C | 93% | 1016.2 hPa | 0 mm | - | 9 W/m² | - |
| 1778211640 | 7.78° C | 93% | 1016.1 hPa | 0 mm | - | 8 W/m² | - |
| 1778211320 | 7.78° C | 93% | 1016.2 hPa | 0 mm | - | 5 W/m² | - |
| 1778211032 | 7.78° C | 93% | 1016.2 hPa | 0 mm | - | 3 W/m² | - |
| 1778210744 | 7.78° C | 93% | 1016.1 hPa | 0 mm | - | 1 W/m² | - |
| 1778210424 | 7.78° C | 93% | 1016.3 hPa | 0 mm | - | 0 W/m² | - |
| 1778210136 | 7.78° C | 92% | 1016.2 hPa | 0 mm | - | 0 W/m² | - |
| 1778209848 | 7.78° C | 92% | 1016.2 hPa | 0 mm | - | 0 W/m² | - |
| 1778209528 | 7.78° C | 92% | 1016.1 hPa | 0 mm | - | 0 W/m² | - |
| 1778209240 | 7.78° C | 92% | 1016.1 hPa | 0 mm | - | 0 W/m² | - |
| 1778208920 | 7.78° C | 92% | 1016 hPa | 0 mm | - | 0 W/m² | - |
| 1778208632 | 7.78° C | 92% | 1015.9 hPa | 0 mm | - | 0 W/m² | - |
| 1778208344 | 7.78° C | 92% | 1016 hPa | 0 mm | - | 0 W/m² | - |
| 1778208024 | 7.78° C | 91% | 1016 hPa | 0 mm | - | 0 W/m² | - |
| 1778207736 | 7.78° C | 91% | 1016 hPa | 0 mm | - | 0 W/m² | - |
* Rain latest hour (hover to see other rain measurements)
** Current wind speed in m/s (hover to see current wind gust speed)